Location: Pescara
(42.4670°N, 14.2170°E)
Time: 17:05:27
(UTC+02:00)

ISS - Pass Details

Date: 12 May 2021
Orbit: 417 x 422 km, 51.6° (Epoch: 18 June)

Event Time Altitude Azimuth Distance (km) Brightness Sun altitude
Exits shadow 01:16:53 15° 26° (NNE) 1,219 -0.7 -29.3°
Drops below altitude 10° 01:17:52 10° 39° (NE) 1,509 -0.3 -29.3°
Sets 01:20:17 0° 55° (NE) 2,376 0.6 -29.2°
